#timestamp,LO_Frequency,Hit,StdDev 
1692446415.5,286046994.2,N
1692446435.3,286046997.8,N
1692446455.2,286046995.9,N
1692446475.9,286046991.1,N
1692446495.7,286046982.6,Y
1692446515.6,286046983.6,P
1692446535.4,286046984.7,N
1692446555.3,286046986.3,N
1692446575.1,286046990.9,N
1692446576.0,286046990.9,N
1692446595.8,286046989.8,N
1692446615.7,286046984.3,Y
1692446635.5,286046993.3,P
1692446655.3,286046992.9,P
1692446675.2,286046991.0,P
1692446695.0,286046989.7,Y
1692446695.9,286046989.7,P
1692446715.8,286046994.8,P
1692446735.6,286046992.2,P
1692446755.4,286046992.6,Y
1692446775.3,286047002.4,P
1692446795.1,286047004.4,N
1692446815.8,286047003.9,N
1692446835.7,286047001.7,N
1692446855.5,286047005.5,N
1692446875.4,286047006.5,N
1692446895.2,286047008.5,N
1692446915.0,286047006.2,N
1692446915.9,286047006.2,N
1692446935.8,286047005.7,N
1692446955.6,286047004.4,N
1692446975.4,286047003.3,N
1692446995.3,286047002.7,N
1692447015.1,286047002.6,N
1692447035.9,286047001.0,N
1692447055.7,286046998.6,N
1692447075.5,286046997.4,N
1692447095.4,286046998.3,N
1692447115.2,286047000.8,N
1692447135.0,286047001.4,N
1692447135.9,286047001.4,N
1692447155.8,286047004.0,N
1692447175.6,286047003.7,N
1692447195.5,286047003.7,N
1692447215.3,286047003.1,N
1692447235.1,286047005.3,N
1692447255.9,286047007.6,N
1692447275.7,286047005.7,N
1692447295.5,286047003.2,N
1692447315.4,286047005.8,N
1692447335.2,286047005.2,N
1692447355.1,286047006.4,N
1692447356.0,286047006.4,N
1692447375.8,286047007.8,N
1692447395.6,286047008.0,N
1692447415.5,286047008.1,N
1692447435.3,286047008.8,N
1692447455.1,286047003.8,N
1692447475.9,286047003.2,N
1692447495.7,286047001.7,N
1692447515.6,286047001.0,N
1692447535.4,286047001.3,N
1692447555.2,286047003.0,N
1692447575.1,286047004.6,N
1692447576.0,286047004.6,N
1692447595.8,286047003.7,N
1692447615.6,286047004.3,N
1692447635.5,286047005.5,N
1692447655.3,286047005.6,N
1692447675.1,286047002.4,N
1692447695.9,286046999.8,N
1692447715.7,286046997.3,N
1692447735.6,286046994.1,N
1692447755.4,286046995.6,N
1692447775.2,286046993.9,N
1692447795.1,286046987.4,Y
1692447796.0,286046987.4,P
1692447815.8,286046981.8,N
1692447835.7,286046977.1,N
1692447855.5,286046984.3,N
1692447875.3,286046986.5,N
1692447895.2,286046985.4,N
1692447915.0,286046987.3,N
1692447915.9,286046987.3,N
1692447935.7,286046991.6,N
1692447955.6,286046986.5,N
1692447975.4,286046992.0,N
1692447995.3,286046985.5,N
1692448015.1,286046991.4,N
1692448016.0,286046991.4,N
1692448035.8,286046992.7,N
1692448055.7,286046988.6,N
1692448075.5,286046989.4,N
1692448095.3,286046982.4,Y
1692448115.2,286046998.6,P
1692448135.0,286046993.5,N
1692448135.9,286046993.5,N
1692448155.8,286046997.4,N
1692448175.6,286047002.6,N
1692448195.4,286047001.7,N
1692448215.3,286046995.7,N
1692448235.1,286047003.7,N
1692448255.8,286047003.9,N
1692448275.7,286047003.6,N
1692448295.5,286047003.6,N
1692448315.4,286047003.9,N
1692448335.2,286047002.7,N
1692448355.0,286047002.4,N
1692448355.9,286047002.4,N
1692448375.8,286047002.4,N
1692448395.6,286047000.2,N
1692448415.4,286047000.1,N
1692448435.3,286046998.1,N
1692448455.1,286047001.0,N
1692448475.9,286047000.5,N
1692448495.7,286046996.5,N
1692448515.5,286046999.2,N
1692448535.4,286046993.4,N
1692448555.2,286046990.3,N
1692448575.1,286046988.1,N
1692448576.0,286046988.1,N
1692448595.8,286046986.5,N
1692448615.6,286046986.4,N
1692448635.5,286046985.7,N
1692448655.3,286046991.6,N
1692448675.1,286046989.0,N
1692448695.9,286046991.5,N
1692448715.7,286046986.9,N
1692448735.5,286046986.1,N
1692448755.4,286046982.3,N
1692448775.2,286046980.7,N
1692448795.1,286046981.8,N
1692448796.0,286046981.8,N
1692448815.8,286046979.5,N
1692448835.6,286046987.0,N
1692448855.5,286046989.6,N
1692448875.3,286046986.7,N
1692448895.1,286046982.7,N
1692448915.9,286046980.5,N
1692448935.7,286046982.8,N
1692448955.6,286046983.4,N
1692448975.4,286046983.1,N
1692448995.2,286046981.9,N
1692449015.1,286046980.3,Y
1692449016.0,286046980.3,P
1692449035.8,286046987.9,P
1692449055.6,286046979.9,P
1692449075.5,286046981.4,Y
1692449095.3,286047005.2,P
1692449115.2,286047008.9,N
1692449135.9,286047005.1,N
1692449155.7,286047013.1,N
1692449175.6,286047010.8,N
1692449195.4,286047012.6,N
1692449215.2,286047012.3,N
1692449235.1,286047000.4,N
1692449236.0,286047000.4,N
1692449255.8,286047005.9,N
1692449275.7,286047004.8,N
1692449295.5,286046995.4,N
1692449315.3,286046993.3,N
1692449335.2,286046996.9,N
1692449355.9,286046990.8,N
1692449375.7,286046984.3,N
1692449395.6,286046988.1,N
1692449415.4,286046993.2,N
1692449435.3,286046987.6,N
1692449455.1,286046978.7,N
1692449456.0,286046978.7,N
1692449475.8,286046986.9,N
1692449495.7,286046984.1,N
1692449515.5,286046981.4,N
1692449535.3,286046976.5,N
1692449555.2,286046989.2,N
1692449575.0,286046993.7,N
1692449575.9,286046993.7,N
1692449595.8,286046992.2,N
1692449615.6,286046987.6,N
1692449635.4,286046980.8,N
1692449655.3,286046985.1,N
1692449675.1,286046983.3,N
1692449676.0,286046983.3,N
1692449695.8,286046982.2,N
1692449715.7,286046984.2,N
1692449735.5,286046984.0,N
1692449755.3,286046983.9,N
1692449775.2,286046985.0,N
1692449795.0,286046986.6,N
1692449795.9,286046986.6,N
1692449815.8,286046985.5,N
1692449835.6,286046982.1,Y
1692449855.4,286046997.6,P
1692449875.3,286046992.9,N
1692449895.1,286046992.4,N
1692449915.9,286046997.3,N
1692449935.7,286046995.8,N
1692449955.5,286046993.7,N
1692449975.4,286046995.1,N
1692449995.2,286046998.5,N
